Location: Sankt+Gallen
(47.4262°N, 9.3755°E)
Time: 05:40:38
(UTC+01:00)

ARIANE 6 FM1 Upper Stage - Pass Details

Date: 16 February 2026
Orbit: 523 x 607 km, 62.0° (Epoch: 11 March)

Event Time Altitude Azimuth Distance (km) Brightness Sun altitude
Rises 20:16:54 0° 310° (NW) 2,659 7.0 -25.8°
Reaches altitude 10° 20:19:14 10° 301° (WNW) 1,768 6.1 -26.2°
Maximum altitude 20:22:46 32° 237° (WSW) 915 4.0 -26.8°
Enters shadow 20:22:53 32° 233° (SW) 916 4.0 -26.8°
